Find Shiyan 32-01

NORAD ID: 66376 Int'l Des: 2025-255 Owner: CASC Country: CN operational
LEOCIRCULAR

当前视图

正在加载3D地球...

关于 Shiyan 32-01

正在加载描述...

即将过境

Passes for default location (London). Set your location on the main map for personalized predictions.

高度历史

Loading altitude history...

两行轨道根数

1 66376U 25255A 26146.19460900 .00022120 00000-0 38668-3 0 9996
2 66376 52.9927 111.7729 0009688 194.6392 165.4337 15.50555598 30805
Epoch: May 26, 2026 • Age: 8 hours

当前状态

高度 423.4 km
速度 7.66 km/s
星下点 35.53°N, 69.37°E
发射日期 Nov 8, 2025
运行时间 0.5 years
类型 other

技术详情

分类 Payload
质量 50.00 kg
干质量 50.00 kg
总质量 50.00 kg
长度 1.50 m
直径 1.50 m
跨度 8.00 m
形状 Box+panels
制造商 SISE
阶段状态 In Orbit
所有者/国家 CASC/CN

Most Searched